Starlink 33676

operational
NORAD ID: 63403 Int'l Des: 2025-065 Owner: SPXS Country: US Constellation: starlink
LEOCIRCULAR

About Starlink 33676

Description loading...

Live Position

Loading 3D Globe...

Upcoming Passes

Altitude History

Altitude vs Time

uPlot chart will show altitude changes over time

Two-Line Element Set

1 63403U 25065E 25301.55663594 .00028242 00000-0 10311-2 0 9994
2 63403 42.9971 133.1488 0000202 186.0669 174.0180 15.27604818 32635
Epoch: Oct 28, 2025 • Age: 20 hours

Current Status

Altitude 492.9 km
Velocity 7.62 km/s
Sub-Earth Point -35.33°S, 178.76°W
Launch Date Mar 31, 2025
Age 0.5 years
Type internet

Technical Details

Classification Payload
Mass 575.00 kg
Dry Mass 530.00 kg
Total Mass 575.00 kg
Length 0.30 m
Diameter 4.10 m
Span 29.00 m
Shape Box + pan
Manufacturer SPXS
Bus Type Starlink V2MO
Phase Status In Orbit
Owner/State SPXS/US

Large Constellations

Loading constellations...